Baton Rouge, LA

9:04 AM CDT on August 27, 2016 (GMT -0500)
Baton Rouge Metro-Ryan

Weather History for KBTR - January, 2013

Change the Weather History Date:

Thursday, January 17, 2013

  Actual Average Record
Temperature  
Mean Temperature 44 °F 52 °F  
Max Temperature 54 °F 62 °F 83 °F (1907)
Min Temperature 34 °F 41 °F 18 °F (1977)
Degree Days  
Heating Degree Days 21 14  
Month to date heating degree days 231 238  
Since 1 July heating degree days 808 854  
Cooling Degree Days 0 0  
Month to date cooling degree days 11 3  
Year to date cooling degree days 11 3  
Moisture  
Dew Point 34 °F    
Average Humidity 71    
Maximum Humidity 100    
Minimum Humidity 41    
Precipitation  
Precipitation 0.01 in 0.19 in 2.12 in (1925)
Month to date precipitation 13.82 3.07  
Year to date precipitation 13.82 3.07  
Snow  
Snow 0.00 in - - ()
Month to date snowfall 0.0  
Since 1 July snowfall 0.0  
Snow Depth 0.00 in    
Sea Level Pressure  
Sea Level Pressure 30.30 in    
Wind  
Wind Speed 5 mph (WNW)    
Max Wind Speed 14 mph    
Max Gust Speed 22 mph    
Visibility 10 miles    
Events Rain    
T = Trace of Precipitation, MM = Missing Value Source: NWS Daily Summary

Daily Weather History Graph

Daily Weather History Graph

Search for Another Location

Airport or City:

Trip Planner

Search our weather history database for the weather conditions in past years. The results will help you decide how hot, cold, wet, or windy it might be!

Date:

Astronomy

Jan. 17, 2013 Rise Set
Actual Time 7:01 AM CST 5:28 PM CST
Civil Twilight 6:36 AM CST 5:53 PM CST
Nautical Twilight 6:06 AM CST 6:23 PM CST
Astronomical Twilight 5:37 AM CST 6:52 PM CST
Moon 10:39 AM CST (1/17) 11:46 PM CST (1/17)
Length of Visible Light 11h 17m
Length of Day
10h 26m
Waxing Crescent, 38% of the Moon is Illuminated
Jan 17
Waxing Crescent
Jan 18
First Quarter
Jan 26
Full
Feb 3
Last Quarter
Feb 10
New

Hourly Weather History & Observations

Time (CST) Temp. Windchill Dew Point Humidity Pressure Visibility Wind Dir Wind Speed Gust Speed Precip Events Conditions
12:40 AM 37.4 °F 30.8 °F 35.6 °F 93% 30.19 in 10.0 mi WNW 9.2 mph 18.4 mph 0.01 in Rain Light Rain
12:49 AM 37.4 °F 30.3 °F 35.6 °F 93% 30.19 in 10.0 mi NW 10.4 mph - 0.01 in   Overcast
12:53 AM 37.9 °F 32.7 °F 35.1 °F 89% 30.19 in 10.0 mi NW 6.9 mph - 0.01 in   Overcast
1:53 AM 37.9 °F 33.5 °F 36.0 °F 93% 30.20 in 10.0 mi WNW 5.8 mph - N/A   Overcast
2:53 AM 37.9 °F 33.5 °F 35.1 °F 89% 30.20 in 10.0 mi NW 5.8 mph - N/A   Overcast
3:53 AM 37.0 °F 34.5 °F 35.1 °F 93% 30.22 in 10.0 mi NW 3.5 mph - N/A   Partly Cloudy
4:34 AM 37.4 °F 32.8 °F 35.6 °F 93% 30.23 in 10.0 mi WNW 5.8 mph - N/A   Mostly Cloudy
4:53 AM 37.0 °F 31.6 °F 35.1 °F 93% 30.23 in 10.0 mi West 6.9 mph - N/A   Mostly Cloudy
5:53 AM 36.0 °F 33.3 °F 35.1 °F 97% 30.25 in 10.0 mi West 3.5 mph - N/A   Mostly Cloudy
6:53 AM 36.0 °F - 35.1 °F 97% 30.28 in 10.0 mi Calm Calm - N/A   Mostly Cloudy
7:03 AM 35.6 °F 32.8 °F 33.8 °F 93% 30.28 in 8.0 mi West 3.5 mph - N/A   Scattered Clouds
7:53 AM 37.0 °F - 35.1 °F 93% 30.28 in 7.0 mi Calm Calm - N/A   Clear
8:35 AM 39.2 °F 35.9 °F 35.6 °F 87% 30.31 in 10.0 mi WNW 4.6 mph - N/A   Partly Cloudy
8:53 AM 39.9 °F 35.1 °F 36.0 °F 86% 30.32 in 10.0 mi West 6.9 mph - N/A   Partly Cloudy
9:53 AM 42.1 °F 37.1 °F 36.0 °F 79% 30.35 in 10.0 mi West 8.1 mph - N/A   Clear
10:53 AM 44.1 °F 38.6 °F 35.1 °F 71% 30.34 in 10.0 mi West 10.4 mph - N/A   Clear
11:53 AM 48.0 °F - 32.0 °F 54% 30.32 in 10.0 mi WNW 9.2 mph - N/A   Clear
12:53 PM 48.9 °F - 28.9 °F 46% 30.29 in 10.0 mi NW 11.5 mph - N/A   Clear
1:53 PM 51.1 °F - 30.9 °F 46% 30.28 in 10.0 mi WNW 8.1 mph 18.4 mph N/A   Clear
2:53 PM 53.1 °F - 30.9 °F 43% 30.28 in 10.0 mi NW 12.7 mph 16.1 mph N/A   Clear
3:53 PM 53.1 °F - 32.0 °F 45% 30.31 in 10.0 mi NW 9.2 mph 18.4 mph N/A   Clear
4:53 PM 52.0 °F - 30.9 °F 45% 30.33 in 10.0 mi NNW 10.4 mph 18.4 mph N/A   Clear
5:53 PM 48.9 °F - 32.0 °F 52% 30.37 in 10.0 mi North 4.6 mph - N/A   Clear
6:53 PM 46.9 °F - 33.1 °F 59% 30.40 in 10.0 mi Calm Calm - N/A   Clear
7:53 PM 41.0 °F - 35.1 °F 79% 30.42 in 10.0 mi Calm Calm - N/A   Clear
8:53 PM 39.9 °F - 35.1 °F 83% 30.44 in 10.0 mi Calm Calm - N/A   Clear
9:53 PM 37.9 °F - 35.1 °F 89% 30.44 in 10.0 mi Calm Calm - N/A   Clear
10:53 PM 37.0 °F - 35.1 °F 93% 30.45 in 10.0 mi Calm Calm - N/A   Clear
11:53 PM 36.0 °F 33.3 °F 34.0 °F 93% 30.45 in 10.0 mi NNW 3.5 mph - N/A   Clear